www.pogodaiklimat.ru

Погода и климат >> Архив погоды >> Россия >> Чукотка >> Бухта Амбарчик


АРХИВ ПОГОДЫ в Бухте Амбарчик

Время (UTC), дата Ветер
(напр.,м/с)
 
Видим.   Явления Облачность Т
(С)
Тd
(С)
f
(%)
Тe
(С)
Тes
(С)
Комфортность P
(гПа)
Po
(гПа)
Тmin
(С)
Tmax
(С)
R
(мм)
R24
(мм)
S
(см)
09 14.04 Ю 4
{7}
20 км 6/0
[Ac trans Ci fib]
-7.2 -12.0 69 -14 -14 1012.8 1009.8 -3.3
12 14.04 Ю 6
{7}
20 км 6/0
[Ci fib]
-6.7 -11.8 67 -15 -15 1015.1 1010.1
15 14.04 ЮЗ 7
{7}
20 км 8/0
[Ci fib]
-7.4 -11.9 70 -16 -16 1013.5 1010.5
18 14.04 С 1
{8}
20 км 8/0
[Ci fib]
-7.8 -12.5 69 -10 -10 1014.2 1011.1
21 14.04 Ю 7
{9}
20 км 8/0
[Ci fib]
-6.1 -11.2 67 -14 -14 1014.4 1011.4 -8.4 23
00 15.04 Ю 8-10
{10}
20 км позёмок 8/0
[Ci fib]
-4.4 -9.0 70 -13 -12 1014.5 1011.5
03 15.04 ЮВ 6
{10}
20 км {метель} 8/0
[Ci fib]
-3.4 -7.4 74 -11 -9 1014.1 1011.1
06 15.04 ЮВ 6
{8}
20 км {метель} 8/0
[Ci fib]
-4.0 -8.1 73 -11 -11 1013.4 1010.4
09 15.04 ЮВ 5
{7}
20 км 6/0
[Ci fib]
-6.4 -10.7 71 -14 -14 1013.2 1010.2 -3.0
12 15.04 Ю 8
{10}
20 км позёмок 8/0
[Ci fib]
-6.2 -11.7 65 -15 -15 1012.9 1009.9
15 15.04 СЗ 1
{9}
20 км {метель} 4/0
[Ci fib]
-8.8 -14.0 66 -11 -11 1012.2 1009.1
18 15.04 Ю 8-11
{11}
20 км позёмок 4/0
[Ci fib]
-5.9 -12.9 58 -14 -14 1011.1 1008.1
21 15.04 Ю 4
{11}
20 км {метель} 8/0
[Ci fib]
-6.1 -13.2 57 -12 -11 1010.8 1007.8 -11.4 23
00 16.04 В 1
{10}
20 км {метель} 6/0
[Ci fib]
-8.3 -12.3 73 -11 -5 1010.9 1007.8
03 16.04 С 1
{6}
20 км 8/0
[Ci fib]
-6.0 -9.6 76 -8 -3 1010.5 1007.5
06 16.04 Ю 1
{6}
20 км 9/0
[Ci fib]
-3.3 -8.0 70 -5 -3 1010.3 1007.3
09 16.04 ЮЗ 4
{4}
20 км 9/0
[Ac trans Ci fib]
-4.6 -9.1 71 -11 -11 1011.1 1008.1 -0.8
12 16.04 ЮЗ 6
{7}
20 км 9/0
[Ac trans Ci fib]
-4.3 -8.6 72 -12 -12 1011.7 1008.7
15 16.04 З 7
{7}
20 км 9/0
[Ac trans Ci fib]
-5.9 -9.3 77 -14 -14 1012.4 1009.4
18 16.04 З 5
{7}
20 км 10/0
[Ac und]
-10.3 -11.8 89 -18 -18 1014.3 1011.2
21 16.04 З 6
{8}
20 км 9/0
[Ac trans Ci fib]
-12.8 -14.4 88 -22 -21 1016.4 1013.3 -12.8 23
00 17.04 З 5
{8}
20 км 8/0
[Ci fib]
-11.6 -13.7 84 -20 -17 1018.5 1015.5 -12.9
03 17.04 З 5
{6}
20 км 4/0
[Ci fib]
-10.5 -12.7 84 -18 -16 1020.0 1017.0
06 17.04 З 2
{7}
20 км 3/0
[Ci fib]
-10.1 -13.3 77 -15 -13 1021.6 1018.5
09 17.04 В 1
{5}
20 км 3/0
[Ci fib]
-12.1 -14.0 86 -14 -14 1022.7 1019.6 -9.9
12 17.04 В 2
{4}
20 км 3/0
[Ci fib]
-14.5 -16.0 88 -19 -19 1023.2 1020.1
15 17.04 В 3
{6}
20 км 6/0
[Ci fib]
-14.9 -16.6 87 -21 -21 1022.7 1019.6
18 17.04 Ю 8-10
{10}
20 км 6/0
[Ci fib]
-9.2 -13.7 70 -19 -19 1021.5 1018.4
21 17.04 Ю 8-10
{12}
20 км позёмок 4/0
[Ci fib]
-7.8 -14.1 61 -17 -16 1020.9 1017.8 -15.9 23
00 18.04 Ю 8-10
{11}
20 км позёмок 8/0
[Ci fib]
-5.6 -11.0 66 -14 -13 1018.8 1015.8
03 18.04 Ю 8
{10}
20 км позёмок 4/0
[Ci fib]
-3.1 -7.5 72 -11 -10 1016.0 1013.0
06 18.04 Ю 5
{9}
20 км {метель} 8/0
[Ci fib]
-3.5 -8.1 70 -10 -9 1013.7 1010.7
09 18.04 ЮВ 9-11
{11}
20 км позёмок 9/0
[Ac trans Ci fib]
-4.6 -9.9 66 -13 -13 1011.0 1008.0 -2.6
12 18.04 Ю 7
{12}
20 км позёмок 9/3 600 м
[Sc Ac trans Ci fib]
-4.0 -11.0 58 -12 -12 1009.8 1006.8
15 18.04 Ю 12-15
{15}
20 км позёмок 9/8 600 м
[Sc Ci fib]
-1.4 -7.0 66 -10 -10 1009.2 1006.3
18 18.04 Ю 8
{15}
20 км позёмок 8/4 600 м
[Sc Ci fib]
-2.0 -5.7 76 -10 -10 1007.6 1004.7
21 18.04 ЮЗ 9-11
{12}
20 км позёмок 8/6 600 м
[Sc Ac trans Ci fib]
-1.4 -4.4 80 -10 -9 1007.8 1004.9 -5.7 23
00 19.04 З 15-17
{18}
1000 м слаб. ливневой снег {метель} 10/10 300 м
[Cb cap]
-6.8 -7.9 92 -19 -19 1010.0 1007.0 -6.8
03 19.04 З 15-17
{19}
1000 м метель {ливн. осадки} 9/8 600 м
[Sc Ac trans]
-10.7 -12.2 89 -23 -23 1013.2 1010.2
06 19.04 З 16-20
{21}
500 м сильная метель {ливн. осадки} 9/8 300 м
[Sc Ac trans]
-12.1 -13.7 88 -25 -25 1015.5 1012.4
09 19.04 З 13-16
{20}
500 м слаб. ливневой снег {метель} 10/10 300 м
[Cb cap]
-12.3 -13.9 88 -25 -25 1017.7 1014.6 -0.9 0.6
12 19.04 З 13-15
{18}
1000 м метель {ливн. осадки} 9/8 300 м
[Sc Ac trans]
-13.9 -15.6 87 -27 -27 1019.4 1016.3
15 19.04 З 15-15
{16}
1000 м метель 9/6 300 м
[Sc Ac trans]
-16.1 -18.2 84 -31 -31 опасность
обморожения
1020.8 1017.7
18 19.04 ЮЗ 11-14
{15}
4000 м метель 9/9 300 м
[Sc]
-16.5 -18.9 82 -29 -29 1021.6 1018.5
21 19.04 З 11-13
{15}
4000 м метель 9/6 300 м
[Sc Ac trans Ci fib]
-16.4 -19.1 80 -29 -29 1022.3 1019.2 -16.7 0.0 23
00 20.04 З 11-13
{15}
4000 м метель 8/4 300 м
[Sc Ci fib]
-14.5 -17.0 81 -27 -27 1022.2 1019.1
03 20.04 З 10-12
{14}
10 км позёмок 8/4 300 м
[Sc Ci fib]
-13.2 -16.4 77 -25 -24 1022.1 1019.0
06 20.04 З 8-10
{12}
20 км позёмок 9/0
[Ci fib]
-13.7 -16.7 78 -24 -24 1022.3 1019.2
09 20.04 ЮЗ 8-10
{11}
20 км позёмок 9/0
[Ci fib]
-15.2 -18.3 77 -26 -26 1022.4 1019.3 -13.1
12 20.04 З 9-11
{11}
20 км позёмок 9/0
[Ac trans Ci fib]
-16.3 -18.8 81 -28 -28 1023.1 1020.0
15 20.04 ЮЗ 8
{11}
20 км позёмок 9/0
[Ac trans Ci fib]
-18.1 -20.6 81 -30 -30 1024.0 1020.8
18 20.04 З 10-11
{11}
20 км позёмок 4/0
[Ac trans Ci fib]
-18.5 -20.9 81 -32 -32 опасность
обморожения
1024.1 1020.9
21 20.04 З 10-10
{12}
20 км позёмок 4/0
[Ac trans Ci fib]
-19.0 -21.5 81 -32 -32 опасность
обморожения
1025.1 1021.9 -19.4 24
00 21.04 З 8
{10}
20 км позёмок 3/0
[Ac trans Ci fib]
-15.9 -18.4 81 -27 -26 1025.3 1022.2
03 21.04 З 7
{9}
20 км позёмок 3/0
[Ci fib]
-14.3 -16.7 82 -24 -23 1026.0 1022.9
06 21.04 З 6
{9}
20 км позёмок 3/0
[Ci fib]
-13.8 -16.2 82 -23 -22 1026.0 1022.9

 

Местоположение метеостанции Бухта Амбарчик (Чукотка, Россия): широта 69.62 долгота 162.30 высота над уровнем моря 23 м.

В архиве по умолчанию представлена погода в Бухте Амбарчик за последнюю неделю. Архивные данные за месяц целиком и за предыдущие месяцы, начиная с января 2011 года, Вы можете получить, выбрав интересующий диапазон дат из раскрывающегося списка и нажав кнопку "Ввод!".


*Определитесь, кто Вы:
робот инопланетянин человек

Внимание! Время в таблицах - всемирное. Для получения местного времени необходимо прибавить поправку, которая равна 12 ч.

Смотрите также архив погоды в соседних городах и на ближайших метеорологических станциях:

Погода в Черском (Якутия, Россия) (107 км)
Погода в Анюйске (Чукотка, Россия) (145 км)
Погода в Раучуе (Чукотка, Россия) (164 км)
Погода в Константиновской (Чукотка, Россия) (170 км)
Погода в Колымской (Якутия, Россия) (177 км)
Погода в Островном (Чукотка, Россия) (182 км)
Погода на Айон Острове (Чукотка, Россия) (218 км)
Погода в Билибино (Чукотка, Россия) (240 км)
Погода в Певеке (Чукотка, Россия) (305 км)
Погода в Андрюшкино (Якутия, Россия) (309 км)

Пояснения к столбцам:

Ветер - указаны скорость ветра в м/с - средняя за 10 мин, порывы в срок и между сроками (в фигурных скобках) и направление, откуда дует ветер: С - северный, СВ - северо-восточный, В - восточный, ЮВ - юго-восточный, Ю - южный, ЮЗ - юго-западный, З - западный, СЗ - северо-западный.
Видимость - горизонтальная дальность видимости в метрах или километрах. При видимости от 1 до 10 км при отсутствии осадков обычно наблюдается дымка, при ухудшении видимости до 1 км и менее - туман. В сухую погоду видимость может ухудшаться дымом, пылью или мглою.
Явления - указаны атмосферные явления, наблюдавшиеся в срок или в последний час перед сроком; фигурными скобками обозначены явления, наблюдавшиеся между сроками (за 1-3 часа до срока); квадратными скобками обозначены град или гололедные отложения с указанием их диаметра в мм.
Облачность - указаны через наклонную черту общая и нижняя облачность в баллах и высота нижней границы облаков в метрах; квадратными скобками обозначены формы облаков: Ci - перистые, Cs - перисто-слоистые, Cc - перисто-кучевые, Ac - высококучевые, As - высокослоистые, Sc - слоисто-кучевые, Ns - слоисто-дождевые, Cu - кучевые, Cb - кучево-дождевые. Подробнее классификацию облаков см. в Атласе облаков (PDF).
T - Температура воздуха - температура, измеренная на высоте 2 м над землей.
Td - Температура точки росы - температура, при понижении до которой содержащийся в воздухе водяной пар достигнет насыщения.
f - Относительная влажность воздуха - влажноcть воздуха, измеренная на высоте 2 м над землей.
Te - Эффективная температура - температура, которую ощущает одетый по сезону человек в тени. Характеристика душности погоды. При расчете учитывается влияние влажности воздуха и скорости ветра на теплоощущения человека.
Tes - Эффективная температура на солнце - температура, которую ощущает человек, с поправкой на солнечный нагрев. Характеристика знойности погоды. Зависит от высоты солнца над горизонтом, облачности и скорости ветра. Ночью, в пасмурную погоду, а также при ветре 12 м/с и более поправка равна нулю.
P - Атмосферное давление - приведенное к уровню моря атмосферное давление.
Po - Атмосферное давление - измеренное на уровне метеостанции атмосферное давление.
Tmin - Минимальная температура - минимум температуры воздуха на высоте 2 м над землей.
Tmax - Максимальная температура - максимум температуры воздуха на высоте 2 м над землей.
R - Количество осадков - Количество выпавших осадков за период времени, мм. При наведении курсора мыши на число - период времени, за который выпало указанное количество осадков.
R24 - Количество осадков - Количество выпавших осадков за 24 часа, мм.
S - Снежный покров - Высота снежного покрова, см. При наведении курсора мыши на число - состояние снежного покрова и степень покрытия местности в баллах.